This demonstration page uses our WeatherBlox Daily Observations layout. Learn more.

39.29038, -76.61219

Hourly Observations for April 18, 2016

Temp ( °F °C ) Dew Point ( °F °C ) Humidity (%) Winds ( mph kmh ) Pressure ( in mb ) Visibility ( mi km ) Precip ( " mm )
12:54 am 00:54 undefined 59 15 36 2.2 42 42 undefined N/A 30.28 1025 N/A 0 0
1:54 am 01:54 undefined 57 13.9 40 4.4 53 53 undefined N/A 30.27 1025 N/A 0 0
2:54 am 02:54 undefined 57 13.9 41 5 55 55 undefined N/A 30.25 1024 N/A 0 0
3:54 am 03:54 undefined 55 12.8 43 6.1 64 64 undefined N/A 30.25 1024 N/A 0 0
4:54 am 04:54 undefined 55 12.8 41 5 59 59 undefined N/A 30.25 1025 N/A 0 0
5:54 am 05:54 undefined 54 12.2 39 3.9 57 57 undefined N/A 30.26 1025 N/A 0 0
6:54 am 06:54 undefined 55 12.8 39 3.9 55 55 undefined N/A 30.26 1025 N/A 0 0
7:54 am 07:54 undefined 64 17.8 37 2.8 37 37 undefined N/A 30.26 1025 N/A 0 0
8:54 am 08:54 undefined 69 20.6 34 1.1 27 27 undefined N/A 30.26 1025 N/A 0 0
9:54 am 09:54 undefined 71 21.7 33 0.6 25 25 undefined N/A 30.26 1025 N/A 0 0
10:54 am 10:54 undefined 74 23.3 34 1.1 23 23 undefined N/A 30.24 1024 N/A 0 0
11:54 am 11:54 undefined 76 24.4 34 1.1 22 22 undefined N/A 30.22 1023 N/A 0 0
12:54 pm 12:54 undefined 79 26.1 33 0.6 19 19 undefined N/A 30.21 1023 N/A 0 0
1:54 pm 13:54 undefined 80 26.7 31 -0.6 17 17 undefined N/A 30.2 1023 N/A 0 0
2:54 pm 14:54 undefined 80 26.7 28 -2.2 15 15 undefined N/A 30.17 1022 N/A 0 0
3:54 pm 15:54 undefined 81 27.2 27 -2.8 14 14 undefined N/A 30.15 1021 N/A 0 0
4:54 pm 16:54 undefined 81 27.2 23 -5 12 12 undefined N/A 30.13 1020 N/A 0 0
5:54 pm 17:54 undefined 80 26.7 27 -2.8 14 14 undefined N/A 30.13 1020 N/A 0 0
6:54 pm 18:54 undefined 79 26.1 27 -2.8 15 15 undefined N/A 30.11 1020 N/A 0 0
7:54 pm 19:54 undefined 75 23.9 34 1.1 22 22 undefined N/A 30.11 1020 N/A 0 0
8:54 pm 20:54 undefined 72 22.2 37 2.8 28 28 undefined N/A 30.12 1020 N/A 0 0
9:54 pm 21:54 undefined 71 21.7 37 2.8 29 29 undefined N/A 30.12 1020 N/A 0 0
10:54 pm 22:54 undefined 69 20.6 37 2.8 31 31 undefined N/A 30.11 1020 N/A 0 0
11:54 pm 23:54 undefined 68 20 35 1.7 30 30 undefined N/A 30.1 1019 N/A 0 0

Powered by AerisWeather